Location: Tel Aviv
(32.0670°N, 34.7670°E)
Time: 04:55:45
(UTC+03:00)

Vanguard 2 - Pass Details

Date: 28 January 2022
Orbit: 552 x 2935 km, 32.9° (Epoch: 25 May)

Event Time Altitude Azimuth Distance (km) Brightness Sun altitude
Rises 19:53:50 0° 260° (W) 3,766 12.1 -34.5°
Maximum altitude 20:03:49 90° 338° (NNW) 1,629 8.9 -36.7°
Enters shadow 20:04:01 87° 79° (ENE) 1,643 8.9 -36.7°
Drops below altitude 10° 20:17:20 10° 83° (E) 5,017 - -39.5°
Sets 20:22:00 0° 84° (E) 6,320 - -40.5°
